RH
39 41 45 54 52 57 72 73 67 52 44 46 66 82 87 85 58 67 30 27 25 21 10 7 10 18 15 16 27 50 65 68 49 34 17 11 15 22 25 33 26 29 15 9 8
43 43 45 64 70 66 51 55 67 62 54 49 51 70 77 83 65 63 56 35 31 27 14 9 9 19 20 14 16 26 47 53 50 38 16 14 16 24 31 32 25 24 15 13 9
42 50 53 60 73 75 75 76 74 67 58 51 68 58 64 54 70 69 61 42 46 42 19 11 11 22 23 15 15 19 30 42 36 41 18 17 22 30 35 32 24 28 20 16 10
38 50 58 54 59 63 66 71 80 71 66 58 68 74 65 70 78 69 57 43 60 56 24 17 14 26 24 16 14 18 23 28 33 27 23 12 22 29 33 31 28 27 24 17 12
36 41 38 40 41 62 63 63 90 89 73 67 59 54 62 83 88 63 58 50 67 70 33 23 17 29 25 18 14 14 17 19 22 26 15 12 18 29 33 29 25 24 26 17 15
30 36 40 44 43 55 79 82 96 99 89 79 75 67 76 80 86 70 52 58 68 80 42 30 31 30 24 18 15 14 16 16 17 17 20 24 26 29 27 26 19 22 24 19 16
27 31 35 42 49 51 61 85 98 98 100 86 77 74 72 93 79 72 56 65 79 89 61 43 38 29 26 19 16 16 16 16 15 18 28 33 31 20 25 22 18 15 22 20 13
23 26 30 39 46 51 60 74 85 96 98 97 83 85 84 81 78 90 85 84 94 89 58 51 35 31 28 24 20 18 16 17 15 14 19 26 20 19 17 17 13 17 21 18 13
28 28 30 38 48 56 75 88 98 94 86 98 95 92 88 80 72 95 74 93 99 81 52 50 37 50 42 28 24 27 24 20 15 14 15 14 14 14 15 12 10 16 19 15 11
28 30 33 40 48 59 76 81 90 96 93 98 96 95 90 79 74 91 74 96 91 60 54 52 55 55 45 35 33 30 27 20 14 14 14 18 13 13 11 10 12 16 16 13 11
30 31 30 35 45 51 64 68 84 92 95 92 98 98 96 86 85 78 68 78 59 48 77 62 63 55 46 35 28 24 19 17 15 15 13 11 9 10 9 9 14 13 13 12 11
23 30 29 29 36 38 50 68 67 92 94 98 98 96 84 77 73 83 57 56 47 58 82 61 61 50 46 42 36 26 23 19 19 16 13 12 9 8 8 8 10 12 11 11 10
14 20 28 29 29 36 37 37 58 62 77 94 93 93 88 86 79 54 55 57 52 81 72 55 55 48 46 44 33 34 26 21 18 18 15 13 10 10 8 7 8 9 9 10 10
14 14 15 22 26 29 31 31 36 51 62 72 66 71 76 72 69 67 59 58 76 75 58 51 51 43 43 40 33 28 26 22 19 20 20 14 16 10 8 8 9 9 9 9 9
13 14 14 14 18 24 27 30 37 48 64 54 63 64 64 63 64 63 59 50 66 64 48 49 47 36 32 35 32 28 24 21 16 19 22 20 19 12 10 9 8 8 8 9 11
12 14 15 15 17 18 23 32 40 40 46 50 57 57 60 62 61 60 62 52 38 46 34 36 39 38 29 26 28 27 24 25 23 20 34 18 17 12 9 8 7 8 10 11 13
13 14 16 18 22 26 29 34 36 37 39 44 47 50 54 55 56 59 60 54 46 46 43 44 38 30 31 26 28 28 22 22 32 42 48 21 20 11 11 9 10 11 13 15 17
18 14 16 18 26 32 27 25 28 35 40 44 46 46 48 50 50 49 50 45 40 33 35 36 39 33 33 29 24 28 22 19 32 50 45 30 24 12 11 12 12 14 17 20 21
26 16 20 23 20 24 26 22 24 30 30 32 33 35 39 49 42 43 38 46 33 33 28 27 26 30 28 31 24 22 23 20 22 32 33 22 20 15 12 14 14 14 14 14 12
28 26 16 20 22 23 22 24 25 27 31 34 30 28 32 35 32 34 32 33 30 30 25 25 26 30 27 27 24 21 20 21 19 24 25 24 17 10 10 11 14 16 15 13 11
20 27 27 18 19 19 19 22 24 28 31 30 33 30 25 26 29 28 29 28 26 26 27 26 26 29 28 24 24 23 21 18 18 18 26 23 17 10 11 12 12 14 14 12 10
18 20 24 28 20 18 21 21 22 22 21 25 34 32 28 25 26 27 26 25 23 22 24 21 19 26 26 22 21 21 24 21 19 24 27 26 18 13 12 12 14 16 13 12 14
24 21 20 22 29 29 17 16 18 17 17 18 21 27 28 27 26 24 23 22 20 21 19 19 19 18 21 22 22 23 21 21 23 23 21 29 16 11 10 9 9 11 11 9 9
26 27 24 21 22 26 32 33 27 18 12 12 15 17 21 22 23 22 21 18 17 18 20 18 17 15 14 16 17 20 16 19 24 26 22 20 14 12 13 13 12 11 9 11 13
27 28 30 27 22 22 26 32 33 35 37 37 16 10 11 12 14 16 17 17 18 18 18 18 15 14 14 13 13 12 11 13 14 13 19 8 10 8 11 12 14 19 24 21 21
31 31 31 32 31 26 22 25 33 34 36 36 37 42 40 26 11 8 9 10 11 11 12 13 12 9 8 8 8 8 8 8 8 9 12 10 11 16 22 30 40 43 35 30 31
28 34 35 32 34 32 30 22 21 28 37 40 39 39 40 42 43 44 46 45 41 36 33 23 19 29 45 46 47 45 28 31 32 31 29 28 30 34 42 51 57 60 51 44 44
Wind_Speed
22 20 22 21 15 6 8 8 8 11 14 18 21 19 17 18 16 21 25 21 26 28 29 33 35 37 35 34 30 27 26 27 22 18 16 16 15 14 12 9 7 9 7 6 5
25 22 21 19 14 11 9 9 9 8 10 15 20 22 22 20 16 21 15 23 24 28 27 30 34 35 34 33 30 30 29 27 23 19 15 13 13 12 12 8 8 9 8 6 6
26 22 18 17 14 11 10 8 9 10 10 13 15 21 26 22 19 13 18 22 23 25 26 29 33 34 35 35 34 33 30 25 18 19 17 16 14 13 12 8 7 9 9 7 6
25 21 19 20 22 17 12 9 8 8 10 11 12 15 18 19 11 15 17 22 21 23 26 29 33 34 35 36 35 32 31 27 20 18 20 19 16 15 13 9 9 12 10 8 7
21 20 22 25 25 27 20 8 6 7 7 9 11 12 16 17 16 5 16 21 22 22 25 27 32 33 35 35 34 33 32 26 22 19 20 20 19 19 15 12 11 12 11 10 10
19 18 21 24 24 23 21 10 1 5 7 8 10 12 13 11 14 12 15 22 19 20 23 26 29 29 31 32 31 31 30 27 22 21 19 19 20 19 18 14 12 14 13 12 12
19 19 20 21 22 20 21 11 3 2 7 10 10 10 12 12 12 9 13 19 18 18 20 22 27 29 28 28 30 21 29 24 25 23 21 20 22 24 18 16 14 16 16 14 14
18 19 18 18 21 22 23 18 13 5 1 9 12 9 11 12 14 10 11 15 15 17 20 23 27 26 22 26 26 20 24 23 27 25 23 22 24 22 21 19 16 16 15 15 16
16 17 19 18 20 22 23 25 12 10 3 8 17 13 10 12 17 14 10 13 14 16 23 25 29 22 23 23 26 22 19 23 22 25 23 24 24 24 18 18 19 18 17 18 17
11 13 14 15 19 23 24 21 21 17 11 12 10 8 8 11 13 11 7 15 15 21 24 24 29 21 22 25 27 23 14 24 21 25 26 25 26 16 11 20 18 21 20 18 17
6 9 12 13 14 18 23 23 23 18 13 11 7 7 11 8 11 11 9 15 19 24 27 23 26 19 21 21 19 18 18 17 25 17 20 26 28 24 24 20 19 19 20 19 19
5 6 9 11 11 12 13 15 22 25 18 13 16 12 7 9 11 10 13 18 22 25 23 21 21 16 20 19 15 19 19 10 12 21 20 17 27 24 25 24 21 20 22 22 22
7 6 6 9 10 10 10 9 9 13 20 21 13 8 14 6 7 9 15 16 21 23 20 21 21 17 19 18 14 15 15 17 8 9 20 22 26 22 23 26 24 24 26 26 25
13 7 4 6 8 9 10 9 5 4 9 14 10 9 7 10 10 11 11 17 21 18 16 14 19 15 17 16 14 8 11 12 14 6 5 11 7 10 15 22 24 23 23 25 26
15 10 6 7 8 7 7 7 5 2 4 6 8 10 3 0 11 12 17 13 19 19 9 10 18 14 13 13 12 9 4 10 12 10 6 8 6 8 14 17 17 19 25 26 22
18 13 9 8 9 8 7 5 4 3 3 3 5 2 8 8 12 18 11 13 17 17 9 11 13 14 10 11 11 6 5 7 8 7 3 11 10 8 8 12 16 19 20 20 18
21 15 12 9 10 10 7 6 3 6 1 2 4 6 9 11 10 6 9 12 11 13 8 12 16 16 14 14 14 11 10 3 1 0 5 4 8 19 9 11 11 11 13 15 14
20 19 15 9 8 9 8 9 6 9 8 6 6 10 8 11 6 4 7 14 12 8 11 10 8 15 13 15 11 14 11 3 5 3 4 5 7 5 8 12 16 16 13 13 14
22 20 17 13 7 6 5 6 4 8 9 8 6 2 9 12 7 5 5 13 5 6 3 9 6 18 12 16 15 14 12 10 1 1 2 5 9 12 14 15 9 10 10 13 15
20 20 19 18 11 7 6 7 7 9 8 3 2 5 4 7 4 7 9 12 9 10 8 5 4 16 13 16 16 10 14 7 7 3 4 5 8 12 8 9 14 14 14 16 16
19 20 19 18 14 10 6 9 10 5 1 1 2 4 5 7 5 8 6 4 10 11 9 6 2 10 13 14 15 16 14 10 7 5 4 1 6 9 10 11 12 11 12 14 13
16 17 19 17 13 9 8 5 4 5 6 3 3 3 4 4 5 6 4 5 8 10 8 6 4 5 16 14 17 19 20 18 9 7 8 4 11 14 12 11 11 12 13 15 18
18 15 15 17 13 12 7 5 3 5 5 4 4 3 5 6 4 7 4 5 5 8 6 7 4 3 2 9 15 18 22 22 23 15 12 5 7 6 9 10 11 12 13 18 23
18 17 16 15 14 13 11 9 6 5 4 3 2 3 3 4 6 4 7 7 7 8 11 8 11 9 6 2 4 8 13 20 23 15 21 27 32 28 26 23 22 22 23 22 22
16 15 17 17 16 14 12 10 9 7 5 4 2 2 4 4 5 7 7 7 8 10 11 11 10 13 16 17 17 18 18 17 24 27 24 30 29 25 22 22 26 28 25 22 23
13 14 15 17 16 16 15 13 10 10 10 9 6 4 5 6 7 7 7 8 9 9 11 13 10 11 14 16 18 22 22 24 27 30 33 35 34 32 29 23 20 19 20 22 25
16 12 14 16 16 16 15 16 16 15 10 7 8 9 8 8 8 9 9 11 12 11 10 11 10 7 6 10 13 19 21 23 30 32 32 33 30 26 24 21 16 15 20 24 27
Wind_Direction
3 359 359 358 353 312 286 289 271 247 242 241 233 225 239 244 244 233 229 218 216 217 220 218 216 218 218 221 223 221 219 224 214 219 225 221 222 218 230 244 241 230 220 198 229
6 1 4 8 5 338 306 280 272 267 247 238 233 227 230 242 245 235 225 212 211 213 212 213 210 211 212 213 214 212 214 224 219 217 232 230 225 223 234 247 231 222 223 237 244
12 12 12 13 0 338 320 292 266 261 245 238 240 230 234 239 242 237 227 210 208 212 206 207 206 205 206 208 208 211 214 216 220 215 226 225 226 224 224 238 226 232 233 247 251
14 15 25 25 12 348 313 293 287 259 246 230 229 225 227 217 227 231 220 205 204 212 203 201 202 201 203 205 206 208 215 217 216 214 221 225 222 229 229 241 230 229 238 251 251
21 23 15 6 4 5 4 269 247 254 247 222 214 216 212 210 216 243 213 203 204 211 204 198 200 199 201 204 206 207 214 216 213 215 224 219 222 225 231 236 240 239 241 244 253
15 15 7 6 2 12 22 43 266 249 225 225 205 203 203 202 211 226 206 200 201 210 204 196 195 195 200 203 204 208 212 213 208 209 216 209 212 220 231 237 245 241 236 242 251
10 14 11 13 13 9 24 24 357 281 220 206 198 199 197 196 195 209 198 201 201 203 198 190 190 190 197 199 200 205 209 209 209 209 209 208 218 225 233 244 247 239 240 245 251
29 30 24 19 23 23 17 9 13 339 277 209 177 171 172 189 185 178 200 200 198 197 183 184 185 184 185 193 192 200 204 206 209 212 214 214 231 235 241 245 243 240 240 245 254
29 37 37 38 33 27 26 16 2 10 20 210 166 153 166 176 184 162 171 187 189 185 178 180 177 173 180 183 184 192 201 200 206 213 218 222 238 238 244 245 240 238 240 245 251
19 24 30 45 46 39 30 39 49 62 53 127 121 113 150 165 187 183 147 178 182 176 172 177 174 173 177 180 180 188 193 200 206 214 222 226 231 230 250 245 240 240 243 244 252
356 6 7 20 39 44 39 40 33 40 73 74 81 106 138 158 174 185 166 169 173 172 172 175 177 177 178 184 191 197 198 208 211 212 227 237 245 241 247 248 242 241 249 254 255
311 328 337 355 9 29 31 30 31 43 93 80 62 103 126 151 166 171 169 163 168 169 171 169 177 171 172 181 186 198 196 184 211 224 233 243 245 243 240 247 244 245 248 255 262
359 305 308 326 345 352 11 3 3 15 40 43 72 111 122 102 125 151 162 166 163 169 169 163 169 169 174 175 181 195 207 214 219 228 231 245 256 248 244 249 250 249 253 258 263
3 343 336 332 343 345 355 355 7 25 53 37 43 54 78 106 122 135 157 156 162 163 161 165 170 174 175 184 193 185 209 217 223 241 232 232 279 262 249 253 254 254 255 257 260
10 6 30 31 17 11 8 12 17 64 52 24 86 98 97 20 133 138 140 153 171 164 165 170 181 173 181 195 200 209 221 215 214 218 248 245 269 279 262 260 256 255 254 259 259
17 10 35 51 47 44 32 45 36 47 30 99 132 98 105 121 140 144 154 159 171 166 155 165 177 190 196 186 189 190 178 172 191 217 266 244 225 273 258 262 253 253 253 257 255
27 21 27 40 54 50 47 49 53 54 59 78 131 121 130 137 142 152 157 160 163 182 177 168 178 185 194 187 190 191 170 107 33 284 216 237 237 244 254 268 273 263 252 246 245
29 21 23 21 43 48 60 66 66 77 83 96 107 138 151 159 162 151 172 168 166 191 177 175 176 190 193 195 196 197 193 196 192 186 265 242 241 250 263 266 259 255 255 253 250
23 28 28 19 8 32 52 67 101 112 117 121 105 107 157 188 187 211 199 202 230 210 193 182 191 188 190 195 196 203 211 218 113 336 310 246 268 273 269 266 251 238 241 244 249
15 24 30 30 28 36 51 92 117 123 123 110 116 136 182 197 214 198 193 209 241 213 219 201 169 191 194 194 200 202 206 197 203 169 248 269 264 242 249 257 247 246 249 250 252
18 21 22 29 37 39 81 105 118 128 128 138 143 178 200 205 210 201 211 236 209 208 203 196 197 190 195 204 211 209 209 206 195 201 173 251 249 238 252 260 261 263 261 261 255
13 20 16 17 34 52 61 53 45 24 2 357 159 173 173 200 238 222 252 241 220 220 218 212 215 177 203 216 215 218 222 220 218 215 210 229 261 262 265 271 269 261 257 261 270
14 9 13 19 18 20 39 42 30 13 8 356 331 265 212 203 216 228 259 242 248 222 219 223 222 176 202 236 231 229 230 228 228 237 232 185 251 273 281 272 270 269 278 284 288
11 14 6 6 7 9 6 8 5 356 9 12 335 313 285 259 253 264 224 215 218 219 226 234 234 229 223 205 207 222 240 239 233 238 244 245 265 271 277 281 283 279 286 286 279
0 8 10 358 354 355 354 349 347 350 347 340 321 290 269 268 269 264 256 252 243 230 224 226 247 243 248 257 259 258 254 245 238 245 245 270 270 277 277 282 287 286 284 279 267
347 352 359 3 1 349 340 340 337 333 324 314 307 290 270 270 268 275 269 257 253 251 245 246 262 270 271 263 263 265 259 256 255 255 257 262 274 282 287 288 288 290 281 270 269
323 327 337 352 2 351 344 324 319 320 316 311 307 303 300 289 278 269 262 260 260 262 260 255 262 276 260 276 284 282 271 261 264 266 269 270 286 281 286 289 289 281 269 270 273